Weather in Korosteli

Russia / Pskov Oblast     56°34′49″N   29°50′51″E
temp.,
°C
wind,
m/s
gust,
m/s
humid.,
%
clouds,
%
prec.,
mm/h
press.,
hPa
HPBL,
m
8 march, mon
mon800:00−5wnw51093100 0.5 999828
03:00−6nw4992100 0.7 1001609
06:00−9nw4109352 0.0 1003439
09:00−8nnw498776 0.1 1005699
12:00−7nnw4779100 0.1 1008852
15:00−6n5776100 0.2 1010945
18:00−7nnw4780100 0.1 1012950
21:00−10nnw289195 0.1 1015216
9 march, tue
tue900:00−11nnw269467 0.0 1016158
03:00−13nw249635 0.0 1018104
06:00−14nw239636 0.0 101886
09:00−12nw248918 0.0 1020189
12:00−7nw247122 0.0 1020729
15:00−5w237254 0.1 1020905
18:00−6ssw1292100 0.2 1019231
21:00−6ssw3794100 0.9 1020448
10 march, wed
wed1000:00−6wsw31086100 0.1 1020452
03:00−6wnw1489100 0.3 1021180
06:00−7ene1296100 0.3 102182
09:00−10e4792100 1.1 1023292
12:00−9e5887100 0.3 1024462
15:00−8e5887100 0.6 1024508
18:00−9ese5991100 0.3 1024514
21:00−11ese5991100 0.6 1026450
11 march, thu
thu1100:00−12ese4993100 0.2 1026399
03:00−12se4992100 0.4 1026362
06:00−12se4894100 0.1 1025337
09:00−12sse4993100 0.1 1025296
12:00−7sse478488 0.0 1023382
15:00−4sse487645 0.0 1022798
18:00−5sse5108580 0.0 1019740
21:00−6sse6139090 0.1 1017786
12 march, fri
fri1200:00−6sse61389100 0.1 1015918
03:00−7sse61487100 0.3 1011881
06:00−7se71589100 0.2 1006871
09:00−6sse71592100 1.9 10021003
12:00−4se71392100 1.8 999968
15:00−1se51094100 3.4 996625
18:000ssw2699100 3.0 995280
21:00+1sw4998100 3.3 996528